Lid_Strength_Index
10 9 10 10 10 9 10 9 11 9 9 7 5 5 4 4 4 4 3 3 3 3 3 2 2 2 2 1 1 1 1 1 1 1 0 0 0 0 -0 -0 -0 -0 -0 -0
11 10 9 11 10 10 10 9 9 9 9 5 5 4 5 5 5 5 4 4 3 3 2 2 2 2 2 2 1 1 1 1 1 1 1 1 0 0 0 0 -0 -0 0 0
12 9 9 11 9 8 8 8 8 10 7 5 6 6 6 5 5 5 4 4 3 3 2 2 2 2 2 2 1 1 1 1 1 1 1 1 1 1 1 1 0 0 0 0
11 10 14 9 6 6 7 7 6 7 6 5 6 5 5 4 5 5 4 4 3 3 2 2 1 1 1 1 1 2 2 1 1 1 1 1 1 1 1 1 1 1 0 0
13 12 10 9 10 10 12 9 6 7 6 6 5 5 6 4 4 4 4 3 3 2 2 2 2 1 1 1 2 2 2 2 1 1 1 1 1 1 1 1 1 1 1 1
11 15 16 13 9 7 7 13 6 6 6 6 6 9 7 5 5 4 3 3 3 2 2 2 2 1 1 2 2 2 2 2 1 1 1 1 1 1 1 1 1 1 1 0
13 14 11 8 8 7 16 12 6 6 6 6 7 6 5 8 7 6 5 3 2 2 3 2 1 1 2 2 2 2 1 1 1 1 1 1 1 1 1 1 1 1 1 1
12 14 16 7 8 13 10 6 7 6 6 6 6 7 9 9 8 7 7 6 3 3 2 1 1 1 2 2 1 1 1 1 1 1 1 1 1 1 1 1 1 1 1 1
11 11 7 6 8 7 7 8 8 7 6 7 8 9 9 10 9 9 7 7 8 4 3 2 1 1 2 2 1 1 1 1 1 1 1 1 1 1 2 1 2 2 2 2
11 9 9 7 6 6 6 6 6 7 7 7 8 9 10 10 10 10 10 8 8 7 6 4 2 2 1 1 1 1 2 2 1 2 2 1 1 1 1 2 2 2 2 2
12 10 9 8 7 6 6 5 7 6 7 8 8 8 9 10 10 10 9 9 8 8 7 6 4 3 2 1 1 2 2 2 2 2 1 2 1 1 1 1 2 2 1 1
13 10 10 10 8 7 8 8 9 9 8 8 9 9 9 9 9 9 10 8 8 8 8 7 6 5 4 3 1 2 2 2 2 2 2 2 2 2 14 13 14 14 14 8
10 8 9 8 8 8 9 8 9 9 10 10 9 10 9 9 8 8 8 8 8 8 8 7 7 7 6 4 1 2 3 2 2 3 2 2 2 2 3 6 15 16 15 15
7 8 10 9 10 8 9 8 9 9 9 10 8 8 9 9 8 8 8 7 7 7 7 7 6 6 5 5 3 1 2 8 1 1 2 2 2 2 2 2 3 2 12 12
7 7 8 8 8 9 8 9 9 10 10 11 9 8 8 8 8 7 7 7 6 6 6 7 6 6 5 4 4 2 1 2 2 1 2 2 2 2 2 2 2 2 1 9
7 7 8 10 10 10 10 10 10 11 10 11 10 10 7 8 8 8 7 6 8 8 7 7 7 6 5 4 4 3 1 4 4 2 2 2 2 2 2 2 3 2 2 2
7 8 8 9 10 10 10 10 10 10 10 11 11 10 10 10 10 10 9 8 8 8 8 9 8 5 4 4 3 4 3 2 4 1 1 2 2 2 2 2 2 2 2 3
3 4 5 6 8 9 10 10 10 11 11 11 10 10 11 10 10 11 11 10 9 9 9 8 8 7 4 4 5 5 4 3 2 1 1 1 1 1 1 2 2 2 2 4
3 3 3 5 5 6 7 9 9 10 10 10 10 11 11 11 10 10 9 10 11 11 10 8 7 7 7 6 6 4 3 3 2 1 1 3 1 1 1 1 1 1 0 1
3 3 3 3 3 4 5 6 7 8 8 7 9 10 11 11 10 10 10 10 10 10 9 8 8 8 7 6 6 4 4 4 3 2 1 1 1 1 1 4 2 1 1 1
4 3 3 3 3 3 4 4 5 6 6 7 7 7 8 8 9 9 10 11 10 9 9 8 9 9 9 9 9 9 8 8 8 9 8 7 4 5 5 4 6 6 4 3
3 4 4 3 4 4 4 4 4 4 5 6 6 6 7 8 8 9 9 9 8 8 8 9 9 9 9 10 11 11 11 11 12 12 12 12 12 13 13 12 13 13 12 11
3 3 3 3 4 4 4 4 4 4 4 4 5 6 6 7 7 8 9 8 8 7 7 8 8 9 10 11 11 11 12 12 13 13 13 13 13 14 14 14 14 14 16 16
2 2 2 2 3 3 4 4 4 3 3 3 4 4 5 6 7 6 6 7 7 7 7 8 8 8 9 9 10 11 12 12 12 12 13 13 13 14 14 14 15 15 15 15
2 2 2 2 3 4 3 3 3 4 4 4 4 3 4 4 5 6 6 7 7 7 7 7 7 8 8 8 9 10 10 11 11 11 11 12 13 14 14 14 14 14 15 15
1 3 2 2 3 3 3 3 4 3 3 4 4 4 3 3 4 4 5 5 6 7 7 7 7 7 7 7 8 8 9 10 10 10 10 11 11 12 13 13 13 14 14 15
2 5 2 3 2 2 2 3 3 4 3 3 4 3 3 4 3 4 4 5 5 6 6 6 7 7 7 7 8 8 8 8 10 10 10 10 10 10 11 11 12 12 12 13